Location: Chez Fauroux
(45.8135°N, 3.4001°E)
Time: 23:14:10
(UTC+00:00)

Daily predictions for brighter satellites

Satellite Brightness Start Highest point End
(mag) Time Altitude Azimuth Time Altitude Azimuth Time Altitude Azimuth
Cosmos 1697 Rocket 3.5 17:41:27 10° SW 17:46:58 56° WNW 17:52:31 10° NNE
Cosmos 2082 3.9 17:41:31 10° NNW 17:47:17 83° WSW 17:53:01 10° SSE
Okean 2 3.5 17:45:59 10° N 17:50:10 83° W 17:54:17 10° S
SL-14 R/B 3.4 17:50:21 10° N 17:54:16 54° ENE 17:58:12 10° SSE
Cosmos 1733 3.1 17:50:40 10° S 17:54:24 75° E 17:58:08 10° NNE
Cosmos 2360 Rocket 3.9 17:53:24 10° ESE 17:54:44 11° E 17:56:04 10° E
Cosmos 1809 Rocket 4.5 17:51:47 10° S 17:57:44 60° E 18:03:43 10° NNE
MINOTAUR 4 R/B 4.1 17:56:45 10° NNE 18:00:15 81° WNW 18:03:42 10° SSW
Cosmos 1766 3.8 17:57:10 10° SSE 18:00:47 37° E 18:04:27 10° NNE
Cosmos 540 Rocket 4.2 17:56:58 10° NNW 18:01:58 57° WSW 18:06:57 10° S
Meteor 2-10 4.2 17:56:41 10° S 18:02:15 67° E 18:07:41 10° NNE
Cosmos 1674 Rocket 3.6 17:59:09 10° N 18:03:32 58° E 18:07:54 10° SSE
YAOGAN 1 2.9 18:01:53 10° SE 18:05:58 43° ENE 18:10:05 10° N
Cosmos 968 Rocket 4.1 18:02:36 10° SSE 18:07:17 34° ESE 18:11:58 10° NE
Okean O Rocket 2.1 18:05:47 10° SE 18:09:50 39° ENE 18:13:56 10° N
IRIDIUM 106 4.5 18:06:23 10° SSE 18:11:23 50° E 18:16:25 10° NNE
SAR-Lupe-3 4.5 18:08:17 10° SSE 18:11:51 86° E 18:15:26 10° NNW
Lacrosse 4 Rocket 2.9 18:09:30 10° SE 18:12:04 16° ESE 18:13:56 13° ENE
SKYMED 2 3.9 18:10:16 10° N 18:14:36 72° WNW 18:18:55 10° SSW
Nadezhda 4 Rocket 4.1 18:08:31 10° SSE 18:14:39 55° E 18:20:47 10° NNE
Meteor 2-5 Rocket 4.3 18:10:41 10° N 18:15:45 36° ENE 18:20:49 10° SE
PSLV R/B 4.0 18:18:27 10° S 18:22:06 69° WSW 18:25:46 10° NNW
Cosmos 2285 Rocket 4.0 18:15:52 10° NNW 18:22:12 65° ENE 18:28:33 10° SSE
Cosmos 1726 2.0 18:19:16 10° S 18:22:54 89° W 18:26:35 10° N
USA 186 3.5 18:22:41 17° ENE 18:23:00 17° ENE 18:25:15 10° NNE
Cosmos 2322 Rocket 2.9 18:18:14 10° SSE 18:23:05 30° ESE 18:27:59 10° NE
Cosmos 1470 3.4 18:24:16 10° SSE 18:27:38 30° E 18:31:02 10° NNE
CZ-4B R/B 3.1 18:22:54 10° SSE 18:28:17 84° ENE 18:33:48 10° NNW
Cosmos 841 Rocket 4.4 18:23:45 10° NNW 18:28:46 52° WSW 18:33:43 10° S
Cosmos 1980 Rocket 3.1 18:23:35 10° SW 18:29:04 52° WNW 18:34:34 10° NNE
Cosmos 1378 Rocket 3.7 18:25:42 10° NNW 18:30:05 75° W 18:34:24 10° S
Cosmos 1975 Rocket 4.0 18:27:23 10° NNE 18:31:11 27° ENE 18:33:09 20° ESE
Timation 2 Rocket 4.4 18:25:33 10° NNW 18:31:55 66° WSW 18:37:59 10° SSE
ARGOS Delta rocket 4.0 18:26:41 10° NNE 18:31:57 88° E 18:36:55 10° SSW
Cosmos 2292 Rocket 3.7 18:32:39 10° S 18:37:45 55° E 18:41:40 10° NNE
USA 215 3.8 18:38:13 10° NE 18:44:36 57° NNW 18:50:57 10° WSW
COBE Rocket 4.3 18:41:44 10° S 18:46:33 65° W 18:51:16 10° NNW
Cosmos 1844 Rocket 3.1 18:44:57 10° NNW 18:50:21 43° NE 18:52:59 27° ESE
Cosmos 2278 4.3 18:46:49 10° SW 18:52:27 61° WNW 18:58:05 10° NNE
SL-16 R/B 2.1 18:47:33 10° SSW 18:53:10 71° ESE 18:58:50 10° NNE
Cosmos 1570 Rocket 4.0 18:50:28 10° NNW 18:55:45 87° WSW 19:00:57 10° SSE
Cosmos 1092 Rocket 3.9 18:49:55 10° S 18:56:07 65° E 19:02:20 10° NNE
Landsat 5 3.9 18:52:09 10° NNE 18:56:27 43° E 19:00:39 10° S
Resurs 01 Rocket 3.4 19:01:19 17° NE 19:01:19 17° NE 19:03:17 10° NNE
SJ-6B 2.9 19:02:07 47° E 19:02:22 47° ENE 19:06:02 10° N
Cosmos 2278 Rocket 4.2 19:02:42 10° NNE 19:04:47 12° NE 19:05:41 11° NE
Cosmos 1437 Rocket 3.0 19:01:34 10° SSW 19:05:17 63° WNW 19:09:01 10° N
H-2A R/B 4.2 19:07:12 17° NNE 19:07:12 17° NNE 19:08:36 10° NNE
Cosmos 2263 Rocket 3.9 19:04:17 10° NW 19:09:19 33° WSW 19:14:20 10° SSW
Meteor 1-24 Rocket 3.5 19:05:52 10° N 19:11:13 87° E 19:16:12 12° S
Resurs 1-3 3.9 19:11:26 44° ENE 19:11:29 44° ENE 19:15:40 10° N
SL-4 R/B 3.1 19:11:53 10° WNW 19:16:11 45° SW 19:17:51 31° SSE
Cosmos 2084 Rocket 3.1 19:15:39 10° NW 19:19:31 88° SW 19:19:51 74° SSE
USA 267 4.1 19:14:27 13° SSE 19:19:55 45° SW 19:26:11 10° WNW
Okean-O 2.5 19:20:29 58° SE 19:21:09 69° ENE 19:25:34 10° N
CZ-4 R/B 2.8 19:18:36 10° SSW 19:22:32 40° W 19:26:30 10° NNW
Cosmos 1486 Rocket 4.0 19:17:23 10° S 19:22:36 61° ESE 19:27:52 10° NNE
ISS -0.8 19:21:51 10° WSW 19:22:58 11° SW 19:24:06 10° SSW
OBJECT-B 2.9 19:24:56 17° NNW 19:24:56 17° NNW 19:25:41 10° NNW
Cosmos 2208 Rocket 4.4 19:19:03 10° NNW 19:24:24 64° WSW 19:28:16 19° S
Cosmos 1844 3.6 19:19:24 10° NNW 19:24:58 65° ENE 19:26:12 51° ESE
IGS 5A 3.3 19:24:37 70° SE 19:25:02 83° ENE 19:29:12 10° N
DNEPR-1 R/B 3.7 19:22:09 10° SSW 19:26:47 79° ESE 19:30:36 20° NE
Meteor 1-22 Rocket 4.4 19:22:15 10° SSW 19:27:38 69° WNW 19:33:17 10° N
Cosmos 2333 Rocket 4.4 19:24:11 10° S 19:36:34 - NE 19:24:22 11° S
Cosmos 1300 Rocket 3.4 19:30:14 76° ENE 19:30:14 76° ENE 19:34:25 10° NNE
S3M 4.4 19:24:30 10° N 19:30:10 39° ENE 19:30:10 39° ENE
CSL-04 Debris 4.2 19:28:02 25° S 19:31:17 81° WSW 19:36:43 10° NNW
Cosmos 2360 Rocket 2.0 19:32:04 10° SSW 19:37:42 75° ESE 19:43:21 10° NNE
Cosmos 1782 Rocket 4.4 19:34:17 10° SSW 19:38:29 48° WNW 19:42:44 10° N
USA 81 4.3 19:34:33 10° N 19:39:49 68° W 19:43:22 21° S
Cosmos 1025 Rocket 3.6 19:39:37 10° NNW 19:43:52 55° W 19:44:51 44° SW
Okean O Rocket 4.0 19:42:57 10° SW 19:46:19 22° W 19:49:43 10° NW
Lacrosse 4 Rocket 2.0 19:46:13 10° SW 19:50:14 53° NW 19:50:17 53° NW
Cosmos 1417 Rocket 4.3 19:44:46 10° N 19:50:53 67° E 19:51:03 67° E
USA 186 4.0 19:55:51 27° WNW 19:55:51 27° WNW 19:58:05 10° NNW
CSL-04 Rocket 4.2 19:55:05 33° SSW 19:57:17 55° W 20:02:37 10° NNW
ATLAS 2AS CENTAUR R/B 4.3 19:54:07 10° NNW 19:59:40 22° NNE 20:01:35 20° NE
MOS 1 4.4 20:01:33 62° NNE 20:01:33 62° NNE 20:06:31 10° N
Landsat 7 4.2 20:04:06 60° W 20:04:06 60° W 20:08:28 10° NNW
Cosmos 1553 Rocket 4.1 19:58:19 10° NNW 20:04:41 75° W 20:06:33 48° SSW
SPOT 1/Viking Rocket 4.1 20:07:54 48° N 20:07:54 48° N 20:11:38 10° N
Cosmos 2322 Rocket 3.1 20:01:26 10° SW 20:06:55 47° WNW 20:12:26 10° NNE
NOSS 3-4 (A) 4.0 20:05:13 10° NNW 20:11:54 53° NE 20:12:04 53° NE
NOSS 3-4 (C) 4.1 20:05:19 10° NNW 20:12:00 53° NE 20:12:10 53° NE
Ariane Rocket 4.4 20:16:26 30° N 20:16:26 30° N 20:19:04 10° N
NOSS 3-3 (A) 4.0 20:15:06 10° SW 20:20:03 67° W 20:20:03 67° W
NOSS 3-3 (C) 4.0 20:15:12 10° SW 20:19:58 64° WSW 20:19:58 64° WSW
Aureole 1 Rocket 4.2 20:17:18 10° SSW 20:24:46 75° WNW 20:30:40 10° NNE
USA 281 4.2 20:27:40 33° NNE 20:27:40 33° NNE 20:32:14 10° N
USA 215 4.5 20:24:15 25° NNE 20:26:52 35° N 20:32:38 10° WNW
Cosmos 1844 Rocket 4.0 20:29:06 10° NW 20:34:06 32° WSW 20:34:40 32° WSW
Resurs 01 Rocket 3.8 20:38:53 23° NNW 20:38:53 23° NNW 20:40:42 10° NNW
SL-16 R/B 4.4 20:33:24 10° W 20:37:51 23° NW 20:42:18 10° N
Terra 4.5 20:42:43 12° N 20:42:43 12° N 20:43:02 10° N
Cosmos 1943 Rocket 4.4 20:37:32 10° N 20:38:59 14° NNE 20:38:59 14° NNE
Cosmos 2278 Rocket 3.8 20:44:47 10° NNW 20:47:32 28° N 20:47:32 28° N
Cosmos 2360 Rocket 4.4 21:18:01 10° W 21:22:19 22° NW 21:26:38 10° N
ATLAS 2AS CENTAUR R/B 4.2 21:45:17 10° NNW 21:49:00 31° NNW 21:49:00 31° NNW
